User: anonymous
Location: Unspecified
(0.0000°N, 0.0000°E)
Time: 04:32:34
(UTC+00:00)
Language:

SICRAL 1B - Orbit

View from above orbital plane
View from above orbital plane
View from above satellite
View from above satellite

Ground track
Ground track

The orbit data is extracted from the following two-line orbital elements,

1 34810U 09020A   14101.64214707 0.00000000  00000-0  00000-0 0    08
2 34810   0.0588  82.5839 0003067  32.8197 327.2237  1.00270000    06
Epoch (UTC): 11 April 2014 15:24:41
Eccentricity: 0.0003067
inclination: 0.0588°
perigee height: 35774 km
apogee height: 35799 km
right ascension of ascending node: 82.5839°
argument of perigee: 32.8197°
revolutions per day: 1.00270000
mean anomaly at epoch: 327.2237°
orbit number at epoch: 0

The dashed part of the orbit path shows where the satellite is in the earth's shadow,  

DLR